| time (UTC) | temp C | wind direction | speed KPH | gust KPH | rain 1hr cm | rain 24hr cm | rain mn cm | humidity % | barometer mb |
| 20260502130413 | 13 | 3 | 4.8 | 8.0 | 0.00 | 4.50 | 0.00 | 88 | 1017.8 |
| 20260502123410 | 12 | 1 | 1.6 | 4.8 | 0.00 | 5.38 | 0.00 | 90 | 1017.4 |
| 20260502122411 | 12 | 24 | 3.2 | 8.0 | 0.00 | 5.56 | 0.00 | 91 | 1017.1 |
| 20260502122312 | 12 | 23 | 3.2 | 8.0 | 0.00 | 5.56 | 0.00 | 91 | 1017.0 |
| 20260502121311 | 11 | 360 | 1.6 | 3.2 | 0.00 | 5.64 | 0.00 | 92 | 1017.0 |
| 20260502121210 | 11 | 30 | 3.2 | 6.4 | 0.00 | 5.64 | 0.00 | 92 | 1017.0 |
| 20260502120211 | 11 | 8 | 3.2 | 8.0 | 0.00 | 6.02 | 0.00 | 92 | 1016.9 |
| 20260502120111 | 11 | 360 | 1.6 | 3.2 | 0.00 | 6.05 | 0.00 | 92 | 1016.9 |
| 20260502115111 | 11 | 16 | 3.2 | 4.8 | 0.00 | 6.15 | 0.00 | 92 | 1016.7 |
| 20260502114111 | 11 | 3 | 3.2 | 8.0 | 0.00 | 6.22 | 0.00 | 92 | 1016.7 |
| 20260502114011 | 11 | 2 | 3.2 | 8.0 | 0.00 | 6.22 | 0.00 | 92 | 1016.6 |
| 20260502112011 | 11 | 8 | 1.6 | 4.8 | 0.00 | 6.38 | 0.00 | 92 | 1016.5 |
| 20260502111011 | 11 | 14 | 3.2 | 4.8 | 0.00 | 6.55 | 0.00 | 92 | 1016.3 |
| 20260502105110 | 11 | 4 | 4.8 | 6.4 | 0.00 | 6.63 | 0.00 | 92 | 1016.1 |
| 20260502104210 | 11 | 23 | 4.8 | 6.4 | 0.00 | 6.71 | 0.00 | 92 | 1016.1 |
| 20260502103209 | 11 | 354 | 1.6 | 4.8 | 0.00 | 6.76 | 0.00 | 92 | 1016.2 |
| 20260502102309 | 11 | 360 | 1.6 | 3.2 | 0.00 | 6.78 | 0.00 | 91 | 1015.9 |
| 20260502102212 | 11 | 339 | 0.0 | 3.2 | 0.00 | 6.78 | 0.00 | 91 | 1015.9 |
| 20260502102113 | 11 | 356 | 0.0 | 3.2 | 0.00 | 6.78 | 0.00 | 91 | 1016.0 |
| 20260502101211 | 12 | 6 | 4.8 | 6.4 | 0.00 | 6.81 | 0.00 | 91 | 1015.8 |
| 20260502091310 | 12 | 15 | 1.6 | 6.4 | 0.00 | 7.59 | 0.00 | 92 | 1014.7 |
| 20260502090311 | 12 | 22 | 1.6 | 3.2 | 0.00 | 7.67 | 0.00 | 92 | 1014.6 |
| 20260502071312 | 13 | 2 | 0.0 | 6.4 | 0.00 | 9.09 | 0.00 | 89 | 1014.8 |
| 20260502070311 | 13 | 34 | 1.6 | 4.8 | 0.00 | 9.09 | 0.00 | 88 | 1014.7 |
| 20260502065310 | 13 | 14 | 0.0 | 3.2 | 0.00 | 9.09 | 0.00 | 89 | 1014.5 |
| 20260502063312 | 13 | 40 | 3.2 | 8.0 | 0.00 | 9.09 | 0.00 | 90 | 1014.4 |
| 20260502061410 | 13 | 101 | 4.8 | 11.3 | 0.00 | 9.09 | 0.00 | 91 | 1014.3 |
| 20260502055409 | 13 | 93 | 6.4 | 12.9 | 0.00 | 9.14 | 0.00 | 91 | 1014.3 |
| 20260502053511 | 13 | 70 | 3.2 | 8.0 | 0.00 | 9.14 | 0.00 | 91 | 1014.3 |
| 20260502052511 | 13 | 67 | 3.2 | 11.3 | 0.00 | 9.17 | 0.00 | 91 | 1014.5 |
| 20260502051510 | 13 | 41 | 1.6 | 8.0 | 0.00 | 9.35 | 0.00 | 91 | 1014.5 |
| 20260502050608 | 13 | 41 | 8.0 | 17.7 | 0.00 | 9.40 | 0.00 | 92 | 1014.4 |
| 20260502045623 | 13 | 46 | 3.2 | 9.7 | 0.00 | 9.45 | 9.45 | 92 | 1014.4 |
| 20260502044722 | 13 | 41 | 6.4 | 8.0 | 0.00 | 9.45 | 9.45 | 92 | 1014.4 |
| 20260502043723 | 14 | 76 | 3.2 | 8.0 | 0.00 | 9.45 | 9.45 | 92 | 1014.0 |
| 20260502042723 | 14 | 84 | 3.2 | 9.7 | 0.00 | 9.58 | 9.45 | 92 | 1014.3 |
| 20260502041723 | 14 | 65 | 4.8 | 17.7 | 0.00 | 9.60 | 9.45 | 92 | 1014.4 |
| 20260502040624 | 14 | 28 | 4.8 | 11.3 | 0.00 | 9.60 | 9.45 | 92 | 1014.5 |
| 20260502035622 | 14 | 59 | 4.8 | 11.3 | 0.00 | 9.60 | 9.45 | 93 | 1014.3 |
| 20260502033821 | 14 | 41 | 6.4 | 12.9 | 0.00 | 9.60 | 9.45 | 92 | 1014.0 |
| 20260502030922 | 14 | 19 | 1.6 | 9.7 | 0.10 | 9.60 | 9.45 | 93 | 1013.5 |
| 20260502025824 | 14 | 37 | 1.6 | 8.0 | 0.18 | 9.60 | 9.45 | 94 | 1013.0 |
| 20260502024822 | 14 | 56 | 3.2 | 6.4 | 0.23 | 9.60 | 9.45 | 94 | 1012.9 |
| 20260502024723 | 14 | 96 | 1.6 | 6.4 | 0.25 | 9.60 | 9.45 | 94 | 1012.8 |
| 20260502023823 | 14 | 37 | 3.2 | 8.0 | 0.36 | 9.60 | 9.45 | 94 | 1013.3 |
| 20260502022822 | 14 | 31 | 4.8 | 9.7 | 0.46 | 9.60 | 9.42 | 94 | 1012.9 |
| 20260502021823 | 14 | 86 | 0.0 | 3.2 | 0.43 | 9.53 | 9.37 | 94 | 1013.0 |
| 20260502020824 | 14 | 17 | 6.4 | 11.3 | 0.43 | 9.50 | 9.32 | 94 | 1012.9 |
| 20260502020725 | 14 | 56 | 4.8 | 11.3 | 0.41 | 9.47 | 9.32 | 94 | 1013.0 |
| 20260502015822 | 14 | 352 | 1.6 | 8.0 | 0.38 | 9.42 | 9.25 | 94 | 1012.7 |
| 20260502014823 | 14 | 39 | 4.8 | 8.0 | 0.33 | 9.37 | 9.19 | 94 | 1012.4 |
| 20260502013824 | 14 | 29 | 8.0 | 12.9 | 0.25 | 9.25 | 9.09 | 93 | 1011.9 |
| 20260502012823 | 15 | 40 | 4.8 | 11.3 | 0.20 | 9.14 | 8.99 | 93 | 1011.9 |
| 20260502011824 | 15 | 15 | 9.7 | 14.5 | 0.20 | 9.09 | 8.94 | 93 | 1012.4 |
| 20260502010823 | 15 | 19 | 6.4 | 11.3 | 0.23 | 9.07 | 8.92 | 93 | 1011.9 |
| 20260502005824 | 15 | 24 | 6.4 | 12.9 | 0.25 | 9.04 | 8.89 | 93 | 1011.0 |
| 20260502005723 | 15 | 25 | 9.7 | 19.3 | 0.25 | 9.04 | 8.89 | 93 | 1010.9 |
| 20260502004622 | 15 | 23 | 4.8 | 8.0 | 0.28 | 9.02 | 8.86 | 94 | 1010.9 |
| 20260502003623 | 15 | 8 | 1.6 | 6.4 | 0.28 | 8.99 | 8.84 | 94 | 1011.6 |
| 20260502002622 | 15 | 3 | 3.2 | 6.4 | 0.25 | 8.94 | 8.79 | 94 | 1011.3 |
| 20260502001624 | 15 | 29 | 3.2 | 8.0 | 0.30 | 8.89 | 8.71 | 94 | 1011.2 |
| 20260502000624 | 15 | 20 | 3.2 | 8.0 | 0.48 | 8.84 | 8.69 | 94 | 1010.8 |
| 20260501234623 | 15 | 32 | 1.6 | 9.7 | 0.38 | 8.74 | 8.59 | 94 | 1010.6 |
| 20260501233623 | 15 | 86 | 0.0 | 0.0 | 0.36 | 8.71 | 8.56 | 94 | 1010.2 |
| 20260501232522 | 15 | 100 | 3.2 | 4.8 | 0.33 | 8.66 | 8.51 | 93 | 1010.2 |
| 20260501231621 | 15 | 128 | 8.0 | 12.9 | 0.25 | 8.59 | 8.41 | 92 | 1010.5 |
| 20260501230623 | 16 | 107 | 1.6 | 6.4 | 0.05 | 8.36 | 8.20 | 92 | 1010.6 |
| 20260501225523 | 16 | 29 | 3.2 | 11.3 | 0.05 | 8.36 | 8.20 | 93 | 1009.0 |
| 20260501224522 | 16 | 121 | 14.5 | 20.9 | 0.08 | 8.36 | 8.20 | 93 | 1008.6 |
| 20260501223523 | 16 | 109 | 12.9 | 20.9 | 0.13 | 8.36 | 8.18 | 93 | 1008.8 |
| 20260501222621 | 16 | 119 | 14.5 | 20.9 | 0.10 | 8.33 | 8.18 | 94 | 1008.7 |
| 20260501222522 | 16 | 97 | 6.4 | 16.1 | 0.10 | 8.33 | 8.18 | 94 | 1008.8 |
| 20260501221522 | 16 | 82 | 4.8 | 9.7 | 0.10 | 8.33 | 8.18 | 94 | 1009.7 |
| 20260501220522 | 16 | 44 | 1.6 | 6.4 | 0.13 | 8.31 | 8.15 | 93 | 1010.5 |
| 20260501215522 | 16 | 24 | 3.2 | 6.4 | 0.18 | 8.31 | 8.15 | 93 | 1010.4 |
| 20260501213625 | 16 | 13 | 1.6 | 8.0 | 0.20 | 8.23 | 8.08 | 93 | 1010.2 |
| 20260501212641 | 16 | 44 | 1.6 | 3.2 | 0.25 | 8.23 | 8.08 | 93 | 1009.7 |
| 20260501211622 | 16 | 66 | 3.2 | 9.7 | 0.36 | 8.23 | 8.08 | 94 | 1008.6 |
| 20260501211522 | 16 | 70 | 4.8 | 14.5 | 0.36 | 8.23 | 8.08 | 94 | 1008.6 |
| 20260501210422 | 16 | 104 | 3.2 | 6.4 | 0.33 | 8.18 | 8.03 | 94 | 1008.4 |
| 20260501205521 | 16 | 48 | 4.8 | 11.3 | 0.36 | 8.13 | 7.98 | 93 | 1009.5 |
| 20260501204621 | 17 | 60 | 3.2 | 14.5 | 0.36 | 8.10 | 7.95 | 94 | 1008.8 |
| 20260501203622 | 17 | 97 | 8.0 | 12.9 | 0.28 | 8.03 | 7.87 | 94 | 1008.8 |
| 20260501202639 | 17 | 57 | 3.2 | 11.3 | 0.25 | 7.98 | 7.82 | 94 | 1008.4 |
| 20260501201622 | 17 | 23 | 8.0 | 16.1 | 0.15 | 7.87 | 7.72 | 93 | 1008.9 |
| 20260501200722 | 17 | 6 | 8.0 | 14.5 | 0.18 | 7.85 | 7.70 | 93 | 1008.8 |
| 20260501195721 | 17 | 24 | 3.2 | 8.0 | 0.15 | 7.77 | 7.62 | 93 | 1008.4 |
| 20260501194723 | 17 | 63 | 1.6 | 8.0 | 0.23 | 7.75 | 7.59 | 94 | 1008.5 |
| 20260501193822 | 17 | 121 | 3.2 | 8.0 | 0.30 | 7.75 | 7.59 | 94 | 1008.7 |
| 20260501191823 | 17 | 107 | 4.8 | 8.0 | 0.41 | 7.72 | 7.57 | 95 | 1008.5 |
| 20260501190824 | 17 | 111 | 0.0 | 3.2 | 0.38 | 7.67 | 7.52 | 94 | 1007.8 |
| 20260501185822 | 17 | 110 | 11.3 | 17.7 | 0.36 | 7.62 | 7.47 | 94 | 1008.1 |
| 20260501184823 | 17 | 47 | 0.0 | 4.8 | 0.30 | 7.52 | 7.37 | 94 | 1008.5 |
| 20260501183821 | 17 | 3 | 1.6 | 6.4 | 0.23 | 7.44 | 7.29 | 94 | 1008.7 |
| 20260501183721 | 17 | 1 | 8.0 | 11.3 | 0.23 | 7.44 | 7.29 | 94 | 1008.5 |
| 20260501182722 | 17 | 127 | 19.3 | 24.1 | 0.10 | 7.32 | 7.16 | 94 | 1006.5 |
| 20260501181722 | 17 | 122 | 11.3 | 14.5 | 0.08 | 7.29 | 7.14 | 94 | 1007.3 |
| 20260501181622 | 17 | 119 | 11.3 | 17.7 | 0.08 | 7.29 | 7.14 | 94 | 1007.1 |